Погода в Горине

Погода в Горине : погода сейчас, прогноз погоды и архив. Всё, что Вы хотите узнать о погоде в Горине!

Хотите узнать прогноз погоды в Горине? Тогда Вам сюда: Погода в Горине

Поиск расширенной информации на нашем сайте:

Другие новости

Новости СМИ2

Главная страница сайта

Новости сайта

03.07.2017

Напоминаем, что на нашем специализированном сайте Метеоцентр.Азия вы можете получить высокодетализированные автоматические прогнозы погоды по пунктам России, СНГ и мира в авиационном формате (включающие направление и скорость ветра, видимость, явления погоды, количество и форму облачности, нижнюю и верхнюю границу облачности).

Рекомендуем: обратите внимание у метро Октябрьская описание помещений на сайте

Погода в Горине - сегодня

Время (UTC), дата Ветер
(°,м/с) 
Видим.   Явления Облачность Т
(°С)
Тd
(°С)
f(%) Тe
(°С)
Pmin
(гПа)
dP
(гПа)
Po
(мм)
O2
(г/м3)
Тmin Tmax R s Состояние
почвы
00 21.09.17 060 (СВ) 20000 м  в посл. час туман  3/0 верхняя 
[Ci fib]
+11.2 +10.7 97 +14  1006.6  1.1  747  287           
03 21.09.17 050 (СВ) 20000 м    3/1 1000 м верхняя 
[Cu hum|Ci fib]
+19.2 +6.1 42 +21  1006  -0.3  746  280           
06 21.09.17 200 (Ю) 20000 м    4/1 1000 м верхняя 
[Cu hum|Ci sp]
+21.8 +2.9 29 +22  1005.1  -0.8  746  278           
09 21.09.17 250 (З) 20000 м    4/0 средняя, верхняя 
[Ac cast|Ci sp]
+14 +10.4 79 +17  1006.5  1.2  747  284    +21.9       
12 21.09.17 тихо ()   20000 м    6/0 средняя, верхняя 
[Ac lent|Ci fib]
+10.5 +9.9 96 +12  1008  1.3  748  288           
15 21.09.17 290 (З) 20000 м    8/0 верхняя 
[Ci fib]
+9.9 +8.9 93 +11  1010  1.9  749  290           
18 21.09.17 тихо ()   20000 м    ясно 
+6.1 +5.6 97 +6  1011.5  1.3  750  295           
21 21.09.17 тихо ()   20000 м    8/0 средняя, верхняя 
[Ac lent|Ci fib]
+5.5 +5 97 +6  1013.1  1.6  751  296  +4.9        влажная 
00 22.09.17 060 (СВ) 20000 м    3/0 верхняя 
[Ci sp]
+12.7 +8.1 74 +14  1014.1  1.3  752  288           
03 22.09.17 120 (ЮВ) 20000 м    ясно 
+19.7 +10.9 57 +23  1012.1  -1.8  751  280           
06 22.09.17 130 (ЮВ) 20000 м    ясно 
+23 +11.2 47 +26  1010.4  -1.5  750  277           
09 22.09.17 тихо ()   20000 м    ясно 
+17.2 +10.8 66 +19  1010.4  -0.2  750  282    +23.1       
12 22.09.17 190 (Ю) 20000 м    ясно 
+12.7 +10.7 88 +16  1011.1  0.5  750  287           
15 22.09.17 тихо ()   20000 м    ясно 
+8.8 +8.3 97 +9  1011  -0.2  750  291           
18 22.09.17 210 (ЮЗ) 20000 м    ясно 
+7.3 +6.8 97 +8  1010.5  -0.6  749  293           
21 22.09.17 тихо ()   20000 м    6/0 верхняя 
[Ci fib]
+6 +5.6 97 +6  1010.4  -0.2  749  295  +5.8        влажная 
00 23.09.17 080 (В) 20000 м    8/0 верхняя 
[Ci sp]
+14.2 +11.4 83 +18  1009.5  -0.5  749  285           
03 23.09.17 140 (ЮВ) 20000 м    10/0 верхняя 
[Cs]
+21.9 +9.9 46 +23  1007.2  -2.1  747  277           
06 23.09.17 130 (ЮВ) 20000 м    9/8 1000 м верхняя 
[Sc|Ci sp]
+20 +11 56 +23  1006  -1.2  746  278           
09 23.09.17 160 (Ю) 20000 м    10/8 1000 м верхняя 
[Sc diur, vesp|Ci sp]
+16.4 +10.3 67 +19  1006.1  746  282    +22.6       
12 23.09.17 180 (Ю) 20000 м    10/10 1000 м 
[Sc]
+15.2 +10.7 74 +19  1006.5  0.4  747  283           
15 23.09.17 260 (З) 20000 м    ясно 
+10 +9 93 +11  1008.4  1.7  748  289           
18 23.09.17 280 (З) 20000 м    ясно 
+7 +6.6 97 +8  1009.5  749  293           
21 23.09.17 тихо ()   20000 м    ясно 
+3.7 +3.3 97 +4  1010.1  0.5  749  297  +3.7        влажная 
00 24.09.17 130 (ЮВ) 20000 м    4/0 верхняя 
[Ci fib]
+13.3 +9.1 76 +14  1008.6  -1.2  748  286           
Время (UTC), дата Ветер
(°,м/с) 
Видим.   Явления Облачность Т
(°С)
Тd
(°С)
f(%) Тe
(°С)
Pmin
(гПа)
dP
(гПа)
Po
(мм)
O2
(г/м3)
Тmin Tmax R s Состояние
почвы

Для получения пояснительной информации подведите курсор к названию столбца.

ПОГОДА в Горине - архив

Всё, что Вы хотите узнать о погоде в Горине - удобно и подробно!

Выберите нужную дату (начиная с 1 января 2015* года) и нажмите кнопку "Найти".
Будут отображены архивные сводки погоды по пункту Горин, начиная с указанной даты.


Отображать данные в формате CSV (для использования в таблицах Excel)


Внимание! Наш архив погоды предназначен исключительно для личного некоммерческого использования в познавательных целях. Если Вам необходимы официальные справки о состоянии погоды (для производственных, юридических, коммерческих и т.п. целей), обращайтесь в органы Росгидромета.

*Примечание: данная дата относится к архиву по метеостанциям СССР (Россия, СНГ, Балтия).
Архив по метеостанциям Зарубежной Европы и Азии (кроме Китая) хранится 10 дней, по другим регионам земного шара (Китай, Африка, Америка, Австралия, Океания) - 1 день.

Горин - район местоположения метеостанции


Название, широта, долгота, высота метеостанции:
Горин 51.2°ш. 136.8°д. 92 м над ур. моря [Российская Федерация]

Дополнительная информация

В oтличие oт бoльшинства пoгoдных сайтoв мы публикуем пoдрoбную метеoинфoрмацию в детальнoм прoфессиoнальнoм фoрмате.

Характеристики температуры и влажнoсти вoздуха измеряются на высoте 2 м в тени вдали oт зданий и деревьев.
Скoрoсть ветра измеряется на высoте 10 м (на урoвне рoста челoвека скoрoсть ветра ниже в 1.5-2 раза). Если метеoстанция нахoдится в гoрoде или в лесу, тo скoрoсть ветра занижена на 2-4 м/с пo сравнению с oткрытым местoм. Скoрoсть ветра над акватoриями крупных рек и oзёр, а также на вершинах хoлмoв на 2-5 м/с выше, чем в oбычных услoвиях.
Атмoсфернoе давление в разных тoчках местнoсти мoжет значительнo oтличаться oт давления на метеoстанции, в зависимoсти oт услoвий рельефа (при пoдъёме на 10 м давление пoнижается примернo на 1 мм рт.ст.).